CW2931 Weather Reports


Display with metric or nautical units.
time (UTC)temp
F
wind
direction
speed
MPH
gust
MPH
rain 1hr
in
rain 24hr
in
rain mn
in
humidity
%
barometer
mb
20180522134110 61 225 1.0 2.0 0.00 0.49 0.09 96 1015.3
20180522133111 61 242 1.0 3.0 0.00 0.49 0.09 96 1015.2
20180522132110 61 238 1.0 3.0 0.00 0.49 0.09 96 1015.1
20180522131116 61 234 2.0 5.0 0.00 0.49 0.09 96 1015.2
20180522130115 60 238 0.0 3.0 0.00 0.49 0.09 96 1015.1
20180522125111 60 261 1.0 3.0 0.00 0.49 0.09 96 1015.1
20180522124110 59 345 0.0 0.0 0.00 0.49 0.09 96 1015.1
20180522123110 59 345 0.0 3.0 0.00 0.49 0.09 96 1015.0
20180522122110 59 345 0.0 0.0 0.00 0.49 0.09 96 1014.9
20180522121110 58 344 0.0 0.0 0.00 0.49 0.09 96 1015.0
20180522120116 58 345 0.0 0.0 0.00 0.49 0.09 95 1015.1
20180522115111 57 345 0.0 3.0 0.00 0.49 0.09 95 1015.1
20180522114110 57 346 0.0 2.0 0.00 0.49 0.09 95 1015.0
20180522113110 57 346 0.0 0.0 0.00 0.49 0.09 95 1015.1
20180522112112 57 346 0.0 0.0 0.00 0.49 0.09 95 1015.0
20180522091110 55 346 0.0 0.0 0.00 0.49 0.09 95 1014.2
20180522090119 55 346 0.0 0.0 0.00 0.49 0.09 95 1014.3
20180522085109 55 346 0.0 0.0 0.00 0.49 0.09 95 1014.5
20180522084110 55 346 0.0 0.0 0.00 0.49 0.09 95 1014.4
20180522083110 55 346 0.0 0.0 0.00 0.49 0.09 95 1014.6
20180522082110 55 346 0.0 0.0 0.00 0.49 0.09 95 1014.5
20180522081110 55 346 0.0 0.0 0.00 0.49 0.09 94 1014.6
20180522080119 55 346 0.0 0.0 0.00 0.49 0.09 94 1014.6
20180522075110 55 346 0.0 0.0 0.00 0.49 0.09 94 1014.6
20180522074109 55 346 0.0 0.0 0.00 0.49 0.09 94 1014.8
20180522073110 55 346 0.0 0.0 0.01 0.49 0.09 94 1014.7
20180522072110 55 346 0.0 0.0 0.02 0.49 0.09 94 1014.9
20180522071110 55 346 0.0 0.0 0.05 0.49 0.09 94 1015.0
20180522070120 55 346 0.0 0.0 0.05 0.49 0.09 94 1015.1
20180522065110 55 346 0.0 0.0 0.05 0.49 0.09 94 1015.1
20180522064110 55 346 0.0 0.0 0.06 0.49 0.09 94 1015.5
20180522063110 55 346 0.0 0.0 0.07 0.48 0.08 94 1015.5
20180522062110 55 346 0.0 0.0 0.06 0.47 0.07 94 1015.6
20180522061111 55 346 0.0 0.0 0.03 0.44 0.04 94 1015.8
20180522060119 55 346 0.0 0.0 0.03 0.44 0.04 94 1015.9
20180522055110 55 346 0.0 0.0 0.03 0.44 0.04 94 1015.8
20180522054110 55 346 0.0 0.0 0.02 0.43 0.03 94 1016.1
20180522053110 55 346 0.0 0.0 0.01 0.41 0.01 94 1016.2
20180522052110 55 346 0.0 0.0 0.01 0.41 0.01 93 1016.5
20180522051110 55 346 0.0 0.0 0.01 0.41 0.01 93 1016.7
20180522050119 55 346 0.0 0.0 0.01 0.41 0.01 93 1016.7
20180522045110 55 346 0.0 0.0 0.01 0.41 0.01 93 1016.9
20180522044110 55 346 0.0 0.0 0.01 0.41 0.01 93 1017.1
20180522043110 55 346 0.0 0.0 0.00 0.40 0.00 93 1017.3
20180522042110 55 346 0.0 0.0 0.00 0.40 0.00 93 1017.3
20180522041110 54 346 0.0 0.0 0.00 0.40 0.00 93 1017.3
20180522040120 54 346 0.0 0.0 0.00 0.40 0.00 93 1017.3
20180522035110 54 346 0.0 0.0 0.00 0.40 0.40 93 1017.3
20180522034110 54 346 0.0 0.0 0.00 0.40 0.40 93 1017.4
20180522033110 54 346 0.0 0.0 0.00 0.40 0.40 93 1017.4
20180522032110 54 346 0.0 0.0 0.00 0.40 0.40 92 1017.5
20180522031110 54 346 0.0 0.0 0.00 0.40 0.40 92 1017.4
20180522030120 54 346 0.0 0.0 0.00 0.40 0.40 92 1017.4
20180522025110 54 346 0.0 3.0 0.00 0.40 0.40 92 1017.5
20180522024110 54 346 0.0 3.0 0.00 0.40 0.40 92 1017.6
20180522023110 54 345 0.0 0.0 0.00 0.40 0.40 92 1017.8
20180522022110 54 345 0.0 0.0 0.01 0.40 0.40 92 1017.8
20180522021110 54 345 0.0 0.0 0.01 0.40 0.40 92 1017.8
20180522020120 54 345 0.0 0.0 0.01 0.40 0.40 92 1017.8
20180522015110 54 345 0.0 0.0 0.01 0.40 0.40 92 1017.9
20180522014110 54 345 0.0 0.0 0.01 0.40 0.40 92 1017.9
20180522013110 53 345 0.0 0.0 0.02 0.40 0.40 91 1017.8
20180522012108 53 345 0.0 0.0 0.01 0.39 0.39 91 1017.8
20180522011107 53 345 0.0 0.0 0.01 0.39 0.39 91 1017.9
20180522010118 54 345 0.0 0.0 0.01 0.39 0.39 91 1018.1
20180522005107 54 345 0.0 0.0 0.02 0.39 0.39 91 1018.3
20180522004107 54 345 0.0 0.0 0.02 0.39 0.39 91 1018.3
20180522003107 54 345 0.0 0.0 0.02 0.38 0.38 90 1018.3
20180522002108 54 345 0.0 0.0 0.02 0.38 0.38 90 1018.3
20180522001108 54 345 0.0 0.0 0.04 0.38 0.38 90 1018.2
20180522000117 54 345 0.0 0.0 0.06 0.38 0.38 90 1017.9
20180521235108 55 345 0.0 0.0 0.11 0.37 0.37 89 1017.9
20180521234107 55 345 0.0 0.0 0.15 0.37 0.37 89 1017.9
20180521233108 55 345 0.0 0.0 0.16 0.36 0.36 89 1017.9
20180521232108 56 345 0.0 0.0 0.18 0.36 0.36 88 1018.3
20180521231108 56 344 0.0 0.0 0.17 0.34 0.34 88 1018.4
20180521230117 57 340 0.0 0.0 0.15 0.32 0.32 87 1018.5
20180521225108 57 339 0.0 0.0 0.10 0.26 0.26 86 1018.9
20180521224108 57 339 0.0 0.0 0.07 0.22 0.22 86 1018.9
20180521223108 58 340 0.0 0.0 0.08 0.20 0.20 85 1018.9
20180521222108 58 338 0.0 0.0 0.12 0.18 0.18 84 1018.8
20180521221108 58 338 0.0 0.0 0.15 0.17 0.17 82 1018.9
20180521220117 59 323 0.0 0.0 0.16 0.17 0.17 81 1018.9
20180521215108 60 331 0.0 3.0 0.16 0.16 0.16 80 1019.0
20180521214108 62 350 1.0 2.0 0.15 0.15 0.15 81 1019.7
20180521213108 63 347 0.0 2.0 0.12 0.12 0.12 80 1020.5
20180521212108 65 350 0.0 0.0 0.06 0.06 0.06 77 1021.4
20180521211107 65 42 0.0 0.0 0.02 0.02 0.02 74 1020.5
20180521210117 65 42 0.0 0.0 0.01 0.01 0.01 71 1020.4
20180521205108 66 42 0.0 0.0 0.00 0.00 0.00 70 1020.0
20180521204108 66 42 0.0 0.0 0.00 0.00 0.00 68 1019.6
20180521203108 67 46 0.0 5.0 0.00 0.00 0.00 68 1019.4
20180521202108 67 173 1.0 3.0 0.00 0.00 0.00 66 1019.7
20180521201108 67 58 0.0 2.0 0.00 0.00 0.00 63 1020.1
20180521200117 67 59 0.0 3.0 0.00 0.00 0.00 60 1020.5
20180521195108 68 36 0.0 6.0 0.00 0.00 0.00 60 1020.7
20180521194108 68 21 1.0 3.0 0.00 0.00 0.00 56 1020.5
20180521193108 68 35 1.0 3.0 0.00 0.00 0.00 55 1020.9
20180521192108 68 109 0.0 3.0 0.00 0.00 0.00 54 1021.0
20180521191108 68 92 3.0 6.0 0.00 0.00 0.00 54 1021.0
20180521190117 69 159 3.0 6.0 0.00 0.00 0.00 54 1021.0
20180521185108 69 104 4.0 10.0 0.00 0.00 0.00 54 1021.1
20180521184108 69 69 3.0 9.0 0.00 0.00 0.00 54 1021.2
20180521183108 68 87 1.0 7.0 0.00 0.00 0.00 53 1021.5
20180521182108 68 90 5.0 9.0 0.00 0.00 0.00 53 1021.6
20180521181108 68 74 5.0 12.0 0.00 0.00 0.00 54 1021.6
20180521180117 68 82 3.0 9.0 0.00 0.00 0.00 57 1021.6
20180521175108 68 73 2.0 7.0 0.00 0.00 0.00 57 1021.7
20180521174108 68 99 3.0 10.0 0.00 0.00 0.00 59 1022.0
20180521173108 67 163 3.0 7.0 0.00 0.00 0.00 59 1022.1
20180521172108 67 140 2.0 9.0 0.00 0.00 0.00 60 1022.1
20180521171108 67 95 3.0 8.0 0.00 0.00 0.00 59 1022.2
20180521170118 66 113 4.0 7.0 0.00 0.00 0.00 61 1022.1
20180521165108 66 103 2.0 7.0 0.00 0.00 0.00 61 1022.5
20180521164108 66 78 3.0 9.0 0.00 0.00 0.00 60 1022.6
20180521163109 66 83 1.0 7.0 0.00 0.00 0.00 60 1022.7
20180521162108 65 15 2.0 7.0 0.00 0.00 0.00 62 1022.8
20180521161108 65 63 3.0 6.0 0.00 0.00 0.00 59 1022.9
20180521160117 65 64 3.0 6.0 0.00 0.00 0.00 58 1023.0
20180521155108 65 110 1.0 5.0 0.00 0.00 0.00 58 1023.0
20180521154108 65 10 1.0 6.0 0.00 0.00 0.00 57 1023.1
20180521153108 65 47 3.0 8.0 0.00 0.00 0.00 56 1023.1
20180521152108 65 68 2.0 6.0 0.00 0.00 0.00 56 1023.2
20180521151108 65 96 5.0 8.0 0.00 0.00 0.00 53 1023.4
20180521150117 66 141 3.0 7.0 0.00 0.00 0.00 51 1023.6
20180521145108 66 105 1.0 6.0 0.00 0.00 0.00 53 1023.7
20180521144108 65 136 2.0 6.0 0.00 0.00 0.00 51 1023.6
20180521143108 64 65 1.0 6.0 0.00 0.00 0.00 53 1023.7
20180521142108 63 351 2.0 12.0 0.00 0.00 0.00 50 1023.9
20180521141108 63 148 1.0 6.0 0.00 0.00 0.00 49 1023.9
20180521140117 63 126 3.0 7.0 0.00 0.00 0.00 48 1023.9
20180521135108 63 40 2.0 5.0 0.00 0.00 0.00 53 1024.0